World > North America > United States > Texas

Henrietta, Texas Regional Weather

Lat: 33.82N, Lon: 98.19W
Wx Zone: TXZ090Web Search

Helpful Tip: Abbreviated, 7 Day, 14 Day Forecasts. There is a weather forecast for every taste.

Feedback


°F Click to change Henrietta hourly weather to Imperial units.Click to change Henrietta hourly weather to Metric units. °C
Henrietta Weather Map
UTC Time: 4/10/2021, 12:06
Your Time:

Henrietta, TX Regional Weather

Expires:202104101300;;329128
ASUS44 KFWD 101203
RWRTX 
NORTH TEXAS HOURLY WEATHER ROUNDUP
NATIONAL WEATHER SERVICE FORT WORTH TX
700 AM CDT SAT APR 10 2021

NOTE: "FAIR" INDICATES FEW OR NO CLOUDS BELOW 12,000 FEET WITH NO
SIGNIFICANT WEATHER AND/OR OBSTRUCTIONS TO VISIBILITY.


TXZ083>090-098>101-113>116-127>130-139>142-154-155-101300-
WESTERN NORTH TEXAS
  
CITY           SKY/WX    TMP DP  RH WIND       PRES   REMARKS
WICHITA FALLS  FAIR      43  36  76 W13       29.96R WCI  36          
6HR MIN TEMP:  42; 6HR MAX TEMP:  53;                                

WF-KICKAPOO    FAIR      45  35  66 NW7       29.98R                  
6HR MIN TEMP:  45; 6HR MAX TEMP:  55;                                

VERNON         FAIR      41  34  78 W7        29.99F WCI  36          
6HR MIN TEMP:  40; 6HR MAX TEMP:  53;                                

ABILENE        FAIR      44  33  65 N8        29.99R WCI  39          
6HR MIN TEMP:  43; 6HR MAX TEMP:  59;                                

ABILENE-DYESS  FAIR      42  28  57 N8        29.99R WCI  37          
6HR MIN TEMP:  42; 6HR MAX TEMP:  59;                                

BRECKENRIDGE   FAIR      46  35  64 NW5       29.97S                  
6HR MIN TEMP:  44; 6HR MAX TEMP:  60;                                

CISCO          CLOUDY    45  34  65 NW10      29.95R WCI  39          
EASTLAND       FAIR      43  35  72 NW8       29.96R WCI  38          
6HR MIN TEMP:  43; 6HR MAX TEMP:  58;                                

RANGER         FAIR      46  34  63 N8        29.95S                  
6HR MIN TEMP:  46; 6HR MAX TEMP:  59;                                

MINERAL WELLS  FAIR      46  34  62 NW10      29.92R                  
6HR MIN TEMP:  46; 6HR MAX TEMP:  59;                                

STEPHENVILLE   FAIR      49  33  55 N13       29.95S                  
6HR MIN TEMP:  49; 6HR MAX TEMP:  60;                                

COMANCHE       FAIR      46  37  70 NW8       29.95S                  
6HR MIN TEMP:  46; 6HR MAX TEMP:  61;                                

COLEMAN        FAIR      46  33  59 N9G16     29.97R                  
6HR MIN TEMP:  46; 6HR MAX TEMP:  60;                                

BRADY          CLOUDY    48  34  57 N10       29.96R                  
$$


SKY/WX - Weather  TMP - Temperature  DP - Dew Point  RH - Relative Humidity
WIND - Wind Direction/Speed PRES - Barometric Pressure VSB - Visibility
WCI - Wind Chill Index E13G22 Wind - East Wind 13 mph/Gusts of 22 mph